#timestamp,LO_Frequency,Hit,StdDev 
1561078815.3,286046990.8,N
1561078835.1,286046991.6,N
1561078855.8,286046988.5,N
1561078875.7,286046991.4,N
1561078895.5,286046991.0,N
1561078915.3,286046989.7,N
1561078935.2,286046988.6,Y
1561078955.9,286046998.0,P
1561078975.7,286046997.7,N
1561078995.6,286046996.0,N
1561079015.4,286046997.3,N
1561079035.2,286046997.9,N
1561079055.1,286046997.6,N
1561079056.0,286046997.6,N
1561079075.8,286046997.2,N
1561079095.6,286046997.7,N
1561079115.5,286046997.6,N
1561079135.3,286046997.3,N
1561079155.1,286046997.5,N
1561079175.9,286046994.9,Y
1561079195.7,286047001.2,P
1561079215.5,286047000.8,N
1561079235.4,286046998.5,N
1561079255.2,286046999.9,N
1561079275.0,286047002.8,N
1561079275.9,286047002.8,N
1561079295.8,286047002.8,N
1561079315.6,286046999.9,N
1561079335.4,286047002.6,N
1561079355.3,286046999.8,N
1561079375.1,286047002.3,N
1561079395.8,286046999.7,N
1561079415.7,286047001.9,N
1561079435.5,286047003.9,N
1561079455.3,286047003.7,N
1561079475.2,286047004.0,N
1561079495.9,286047001.8,N
1561079515.7,286047001.7,N
1561079535.6,286047004.3,N
1561079555.4,286047004.2,N
1561079575.2,286047004.1,N
1561079595.1,286047004.3,N
1561079596.0,286047004.3,N
1561079615.8,286047003.9,N
1561079635.6,286047004.3,N
1561079655.5,286047003.8,N
1561079675.3,286047004.1,N
1561079695.1,286047003.4,N
1561079715.9,286047006.0,Y
1561079735.7,286047001.3,P
1561079755.5,286047001.4,N
1561079775.4,286046999.8,N
1561079795.2,286047000.5,N
1561079815.0,286046999.9,N
1561079815.9,286046999.9,N
1561079835.8,286047000.2,N
1561079855.6,286047002.8,Y
1561079875.4,286047001.0,P
1561079895.3,286047000.4,N
1561079915.1,286046999.7,N
1561079935.8,286047000.1,N
1561079955.7,286047000.7,N
1561079975.5,286047000.8,N
1561079995.4,286047002.3,Y
1561080015.2,286047000.5,P
1561080035.0,286047002.8,P
1561080035.9,286047002.8,N
1561080055.8,286047002.0,N
1561080075.6,286047011.9,Y
1561080095.4,286047002.6,P
1561080115.3,286047000.8,N
1561080135.1,286047002.7,P
1561080136.0,286047002.7,Y
1561080155.8,286047011.9,P
1561080175.7,286046998.2,N
1561080195.5,286047000.7,N
1561080215.3,286047000.7,N
1561080235.2,286046999.9,N
1561080255.9,286047000.2,N
1561080275.7,286047000.0,N
1561080295.6,286047000.5,N
1561080315.4,286047002.4,N
1561080335.2,286047002.1,N
1561080355.1,286047001.0,N
1561080356.0,286047001.0,N
1561080375.8,286046998.2,N
1561080395.6,286046998.1,N
1561080415.5,286046998.2,N
1561080435.3,286046998.7,N
1561080455.1,286047001.2,N
1561080475.9,286046998.2,N
1561080495.7,286046998.2,N
1561080515.5,286047001.2,N
1561080535.4,286047001.1,N
1561080555.2,286046999.7,N
1561080575.0,286047001.1,N
1561080575.9,286047001.1,N
1561080595.8,286047000.7,N
1561080615.6,286047001.1,N
1561080635.4,286047001.2,N
1561080655.3,286047000.7,N
1561080675.1,286047000.8,N
1561080676.0,286047000.8,N
1561080695.8,286047000.9,N
1561080715.7,286047001.1,N
1561080735.5,286047000.4,N
1561080755.3,286047002.3,N
1561080775.2,286047001.2,N
1561080795.9,286047000.5,N
1561080815.7,286046998.1,N
1561080835.6,286047001.2,N
1561080855.4,286047002.6,N
1561080875.2,286047000.6,N
1561080895.1,286046998.5,N
1561080896.0,286046998.5,N
1561080915.8,286046998.2,N
1561080935.6,286047002.3,N
1561080955.5,286047000.6,N
1561080975.3,286047000.9,N
1561080995.1,286047001.0,N
1561081015.9,286047000.5,N
1561081035.7,286047000.9,N
1561081055.5,286047000.7,N
1561081075.4,286047002.3,N
1561081095.2,286047002.8,N
1561081115.0,286046999.9,N
1561081115.9,286046999.9,N
1561081135.8,286047000.7,N
1561081155.6,286046999.8,N
1561081175.4,286047000.4,N
1561081195.3,286047000.8,N
1561081215.1,286046998.4,N
1561081235.8,286046999.2,N
1561081255.7,286046999.6,N
1561081275.5,286046999.5,N
1561081295.3,286046996.8,N
1561081315.2,286046997.1,N
1561081335.0,286046996.7,N
1561081335.9,286046996.7,N
1561081355.7,286046996.6,N
1561081375.6,286046997.6,N
1561081395.4,286046997.3,N
1561081415.2,286046999.5,N
1561081435.1,286046999.2,N
1561081436.0,286046999.2,N
1561081455.8,286046997.1,N
1561081475.6,286046999.6,N
1561081495.5,286046999.6,N
1561081515.3,286046996.6,N
1561081535.2,286046996.9,N
1561081555.9,286046999.2,N
1561081575.7,286046999.6,N
1561081595.6,286046996.6,N
1561081615.4,286046996.5,N
1561081635.2,286046998.1,N
1561081655.1,286046999.0,N
1561081656.0,286046999.0,N
1561081675.8,286046999.0,N
1561081695.6,286047001.1,N
1561081715.5,286047001.1,N
1561081735.3,286047000.6,N
1561081755.1,286046998.4,N
1561081775.9,286047001.0,N
1561081795.7,286047000.9,N
1561081815.5,286046998.6,N
1561081835.4,286046998.6,N
1561081855.2,286046998.3,N
1561081875.0,286047001.2,N
1561081875.9,286047001.2,N
1561081895.8,286047000.9,N
1561081915.6,286046998.3,N
1561081935.4,286046998.3,N
1561081955.3,286046998.5,N
1561081975.1,286046999.0,N
1561081976.0,286046999.0,N
1561081995.8,286046999.6,N
1561082015.7,286046997.2,N
1561082035.5,286046996.8,N
1561082055.3,286046997.3,N
1561082075.2,286046997.4,N
1561082095.9,286046995.1,Y
1561082115.7,286046996.8,P
1561082135.6,286046997.0,N
1561082155.4,286046996.6,P
1561082175.2,286046999.2,N
1561082195.1,286046998.5,N
1561082196.0,286046998.5,N
1561082215.8,286046999.5,N
1561082235.6,286046999.1,N
1561082255.5,286046998.6,N
1561082275.3,286046998.7,N
1561082295.1,286046998.6,N
1561082315.9,286047000.8,N
1561082335.7,286046998.6,N
1561082355.5,286047001.1,N
1561082375.4,286047000.0,N
1561082395.2,286046999.9,N
